Weather History for TNCM - February, 2015

Change the Weather History Date:

Sunday, February 22, 2015

  Actual Average Record
Temperature  
Mean Temperature 78 °F -  
Max Temperature 81 °F 82 °F 86 °F (1998)
Min Temperature 74 °F 72 °F 69 °F (2005)
Cooling Degree Days 12    
Growing Degree Days 28 (Base 50)    
Moisture  
Dew Point 69 °F    
Average Humidity 71    
Maximum Humidity 83    
Minimum Humidity 52    
Precipitation  
Precipitation 0.12 in 0.06 in - ()
Sea Level Pressure  
Sea Level Pressure 30.07 in    
Wind  
Wind Speed 14 mph ()    
Max Wind Speed 24 mph    
Max Gust Speed 33 mph    
Visibility 7.4 miles    
Events Rain    
Averages and records for this station are not official NWS values.
T = Trace of Precipitation, MM = Missing Value Source: Averaged Metar Reports

Daily Weather History Graph

Daily Weather History Graph

Search for Another Location

Airport or City:

Trip Planner

Search our weather history database for the weather conditions in past years. The results will help you decide how hot, cold, wet, or windy it might be!

Date:

Astronomy

Feb. 22, 2015 Rise Set
Actual Time 6:35 AM AST 6:16 PM AST
Civil Twilight 6:13 AM AST 6:38 PM AST
Nautical Twilight 5:48 AM AST 7:03 PM AST
Astronomical Twilight 5:22 AM AST 7:29 PM AST
Moon 9:21 AM AST (2/22) 10:12 PM AST (2/22)
Length of Visible Light 12h 24m
Length of Day
11h 40m
Waxing Crescent, 19% of the Moon is Illuminated
Feb 22
Waxing Crescent
Feb 25
First Quarter
Mar 5
Full
Mar 13
Last Quarter
Mar 20
New

Hourly Weather History & Observations

Time (AST) Temp. Heat Index Dew Point Humidity Pressure Visibility Wind Dir Wind Speed Gust Speed Precip Events Conditions
12:00 AM 78.8 °F - 69.8 °F 74% 30.09 in 6.2 mi East 11.5 mph - N/A   Scattered Clouds
1:00 AM 77.0 °F - 68.0 °F 74% 30.06 in 6.2 mi East 17.3 mph - N/A   Partly Cloudy
2:00 AM 78 °F - 69 °F 68% 30.07 in 22 mi East 13.8 mph - -   Partly Cloudy
2:00 AM 77.0 °F - 69.8 °F 78% 30.06 in 6.2 mi East 13.8 mph - N/A   Scattered Clouds
3:00 AM 78.8 °F - 68.0 °F 69% 30.04 in 6.2 mi East 16.1 mph - N/A   Scattered Clouds
4:00 AM 77.0 °F - 68.0 °F 74% 30.04 in 6.2 mi East 15.0 mph - N/A   Scattered Clouds
5:00 AM 78 °F - 69 °F 67% 30.05 in 22 mi ENE 13.8 mph - - Rain Light Rain Showers
5:00 AM 77.0 °F - 69.8 °F 78% 30.04 in 6.2 mi ENE 13.8 mph - N/A   Mostly Cloudy
6:00 AM 75.2 °F - 69.8 °F 83% 30.06 in 2.5 mi East 16.1 mph - N/A Rain Heavy Rain Showers
7:00 AM 75.2 °F - 69.8 °F 83% 30.06 in 6.2 mi East 18.4 mph - N/A   Scattered Clouds
8:00 AM 78 °F - 70 °F 69% 30.09 in 25 mi East 24.2 mph - -   Mostly Cloudy
8:00 AM 77.0 °F - 69.8 °F 78% 30.09 in 6.2 mi East 18.4 mph 31.1 mph N/A   Scattered Clouds
9:00 AM 75.2 °F - 69.8 °F 83% 30.09 in 5.6 mi East 17.3 mph 31.1 mph N/A Rain Light Rain Showers
10:00 AM 77.0 °F - 69.8 °F 78% 30.12 in 3.1 mi East 18.4 mph 31.1 mph N/A Rain Rain Showers
11:00 AM 76 °F - 70 °F 78% 30.12 in 6 mi ESE 15.0 mph - - Rain Light Rain Showers
11:00 AM 77.0 °F - 69.8 °F 78% 30.09 in 5.6 mi East 16.1 mph 29.9 mph N/A Rain Light Rain Showers
11:15 AM 75.2 °F - 69.8 °F 83% 30.12 in 2.5 mi East 17.3 mph 32.2 mph N/A Rain Rain Showers
11:40 AM 77.0 °F - 69.8 °F 78% 30.09 in 5.6 mi East 16.1 mph 29.9 mph N/A Rain Light Rain Showers
12:00 PM 75.2 °F - 69.8 °F 83% 30.09 in 5.0 mi East 18.4 mph 32.2 mph N/A Rain Rain Showers
1:00 PM 78.8 °F - 69.8 °F 74% 30.06 in 6.2 mi East 15.0 mph - N/A   Scattered Clouds
2:00 PM 81 °F - 66 °F 52% 30.06 in 19 mi East 20.7 mph - -   Partly Cloudy
2:00 PM 80.6 °F 82.7 °F 66.2 °F 61% 30.04 in 6.2 mi East 20.7 mph 33.4 mph N/A   Partly Cloudy
3:00 PM 80.6 °F 82.7 °F 66.2 °F 61% 30.04 in 6.2 mi East 15.0 mph - N/A   Partly Cloudy
4:00 PM 80.6 °F 82.7 °F 66.2 °F 61% 30.01 in 6.2 mi East 17.3 mph - N/A   Partly Cloudy
5:00 PM 80 °F - 68 °F 58% 30.03 in 19 mi East 13.8 mph - -   Scattered Clouds
5:00 PM 80.6 °F 83.2 °F 68.0 °F 65% 30.01 in 6.2 mi East 13.8 mph 28.8 mph N/A   Partly Cloudy
6:00 PM 78.8 °F - 68.0 °F 69% 30.04 in 6.2 mi East 13.8 mph - N/A   Partly Cloudy
7:00 PM 78.8 °F - 68.0 °F 69% 30.04 in 6.2 mi East 10.4 mph - N/A   Scattered Clouds
8:00 PM 78 °F - 67 °F 62% 30.08 in 19 mi ENE 10.4 mph - -   Scattered Clouds
8:00 PM 78.8 °F - 68.0 °F 69% 30.06 in 6.2 mi ENE 10.4 mph - N/A   Partly Cloudy
9:00 PM 78.8 °F - 66.2 °F 65% 30.06 in 6.2 mi East 10.4 mph - N/A   Partly Cloudy
10:00 PM 78.8 °F - 66.2 °F 65% 30.09 in 6.2 mi ENE 8.1 mph - N/A   Partly Cloudy
11:00 PM 78 °F - 68 °F 65% 30.11 in 19 mi East 11.5 mph - -   Partly Cloudy
11:00 PM 77.0 °F - 68.0 °F 74% 30.09 in - East 11.5 mph - N/A   Scattered Clouds